Home   Weather   Marseille   Past weeks

Flag for France Past Weather in Marseille, Provence-Alpes-Côte d'Azur, France — Yesterday and Last 2 Weeks

Now
75 °F

Clear.


Feels Like: 78 °F
Forecast: 74 / 86 °F
Wind: 9 mph from West

Location: Marseille / Marignane

Current Time: Jul 28, 2017 at 3:00:59 am

Latest Report: Jul 28, 2017 at 2:30 am


Visibility: 10 mi

Pressure: 29.92 "Hg

Humidity: 57%

Dew Point: 59 °F

Location of MarseilleLocation

Past Weather in Marseille — Graph

°F

Marseille Temperature Yesterday

Maximum temperature yesterday: 86 °F (at 1:30 pm)
Minimum temperature yesterday: 72 °F (at 6:00 am)
Average temperature yesterday: 78 °F

High & Low Weather Summary for the Past Weeks

 TemperatureHumidityPressure
High91 °F (Jul 13, 4:00 pm)88% (Jul 22, 6:30 am)30.15 "Hg (Jul 22, 6:30 am)
Low66 °F (Jul 17, 6:00 am)15% (Jul 17, 1:00 pm)29.77 "Hg (Jul 26, 5:00 pm)
Average79 °F42%29.95 "Hg
* Reported Jul 13 1:00 am — Jul 28 1:30 am, Marseille. Weather by CustomWeather, © 2017

Note: Actual official high and low records may vary slightly from our data, if they occured in-between our weather recording intervals... More about our weather records

Advertising

Marseille Weather History for the Previous 24 Hours

Scroll right to see more
 ConditionsComfort  
Time TempWeatherWind HumidityBarometerVisibility
1:30 am
Fri, Jul 28
73 °FPassing clouds.5 mph65%29.92 "HgN/A
1:00 am73 °FPassing clouds.6 mph65%29.92 "HgN/A
12:30 am73 °FPassing clouds.3 mph65%29.92 "HgN/A
12:00 am73 °FClear.3 mph65%29.89 "Hg10 mi
11:30 pm
Thu, Jul 27
73 °FClear.3 mph65%29.89 "Hg10 mi
11:00 pm75 °FClear.3 mph61%29.89 "Hg10 mi
10:30 pm75 °FClear.5 mph65%29.89 "Hg10 mi
10:00 pm75 °FClear.9 mph65%29.89 "Hg10 mi
9:30 pm75 °FClear.7 mph61%29.86 "Hg10 mi
9:00 pm77 °FPassing clouds.6 mph54%29.86 "HgN/A
8:30 pm77 °FSunny.10 mph54%29.86 "Hg10 mi
8:00 pm77 °FSunny.10 mph57%29.86 "Hg10 mi
7:30 pm81 °FSunny.22 mph45%29.83 "Hg10 mi
7:00 pm82 °FSunny.22 mph42%29.83 "Hg10 mi
6:30 pm82 °FSunny.16 mph42%29.83 "Hg10 mi
6:00 pm82 °FPassing clouds.15 mph40%29.83 "HgN/A
5:30 pm84 °FSunny.14 mph37%29.83 "Hg10 mi
5:00 pm86 °FSunny.16 mph31%29.83 "Hg10 mi
4:30 pm86 °FSunny.17 mph31%29.83 "Hg10 mi
4:00 pm86 °FSunny.20 mph31%29.83 "Hg10 mi
3:30 pm86 °FSunny.20 mph31%29.83 "Hg10 mi
3:00 pm86 °FSunny.18 mph35%29.86 "Hg10 mi
2:30 pm86 °FSunny.17 mph35%29.86 "Hg10 mi
2:00 pm86 °FSunny.13 mph35%29.86 "Hg10 mi
1:30 pm86 °FPassing clouds.13 mph33%29.86 "HgN/A
1:00 pm84 °FSunny.14 mph37%29.89 "Hg10 mi
12:30 pm82 °FSunny.15 mph42%29.89 "Hg10 mi
12:00 pm81 °FSunny.12 mph42%29.89 "Hg10 mi
11:30 am82 °FSunny.14 mph37%29.89 "Hg10 mi
11:00 am81 °FSunny.15 mph37%29.89 "Hg10 mi
10:30 am79 °FSunny.17 mph42%29.89 "Hg10 mi
10:00 am79 °FSunny.15 mph42%29.89 "Hg10 mi
9:30 am77 °FPartly sunny.15 mph44%29.89 "HgN/A
9:00 am75 °FSunny.12 mph47%29.89 "Hg10 mi
8:30 am75 °FSunny.12 mph47%29.89 "Hg10 mi
8:00 am73 °FSunny.14 mph50%29.86 "Hg10 mi
7:30 am72 °FPassing clouds.15 mph53%29.86 "HgN/A
7:00 am72 °FSunny.15 mph53%29.86 "Hg10 mi
6:30 am72 °FSunny.14 mph53%29.83 "Hg10 mi
6:00 am72 °FClear.16 mph50%29.86 "Hg10 mi
5:30 am73 °FClear.20 mph47%29.86 "Hg10 mi
5:00 am73 °FClear.20 mph44%29.83 "Hg10 mi
4:30 am73 °FClear.21 mph44%29.83 "Hg10 mi
4:00 am73 °FClear.20 mph41%29.83 "Hg10 mi
3:30 am73 °FClear.14 mph41%29.83 "Hg10 mi
3:00 am75 °FClear.15 mph39%29.86 "Hg10 mi
Weather by CustomWeather, © 2017

See weather overviewHow to use our weather pages